Welcome to Boston ARTCC, where excellence is served daily with a cup of MOCHA HAGoTDI


Whether you are a pilot, controller, or a little of both; ZBW is the premier airspace in VATSIM

News

A New Air Traffic Manager Emerges

Team Boston,

I am honored and excited to announce that I have been appointed as Boston ARTCC's Air Traffic Manager.

Obviously watching Don Desfosse and Rich Bonneau excel in this position before me have been great examples of what it takes to make this facility great. I feel that we have a strong core of controllers and staff members that are ready and able to step up continue the tradition that is vZBW. As DO has said many times "many hands make light work" and recently there have been many hands in getting facilities, website design, and facility documentation updated and modernized.

Our goals and vision are going to continue to be based in growth, retention, excellence, and... wait for it... FUN! We are at our best when we randomly staff 6-8 positions on a Tuesday night with no planning, and it usually starts with just one person staffing up and the rest just come pouring in. 

The future is bright here at ZBW, and I am happy to serve for all of you and do my part to make this one hell of a place to keep virtual tin separated!


Francis Dube

Air Traffic Manager

Boston ARTCC

_________________________________________________________

1 day ago

vZBW Social Media

Be sure to give us a like/follow on Facebook and Twitter to stay in the loop regarding events, procedures, and more!

_________________________________________________________

3 days ago

PDC In Use!

ATTENTION ALL vZBW PILOTS:

PDCs (Pre-Departure Clearances) are now in use at ALB, BOS, BDL, and PVD.

Be aware that PDCs will only be utilized when deemed necessary by the controller, for example, in situations such as high workload. However, if pilots wish to receive your clearance via PDC at one of these airports, they may make that request to the appropriate controller.

Pilots are not required to readback any portion of their PDC unless they have any questions or concerns. 

However, pilots are required to call in with the current ATIS code as well as their assigned transponder code. See example below:

"Boston Ground, JetBlue seventeen eighty-six ready for taxi with information Alpha, squawking 1301."

Feel free to email datm@bostonartcc.net with any questions, comments, concerns, or suggestions regarding these new PDC procedures.

_________________________________________________________

1 week ago

ZBW Procedures Update

New procedures are in effect within ZBW as of 13 November 2014.   ZBW controllers will accomodate both the old RNAV arrivals as well as the new ones for some transition period.  Pilots should identfy the RNAV arrival they are planning to fly in their flight plan. Radar vector arrival procedures are also still available and in effect for those pilots unable to fly RNAV arrivals.

KBOS: 

The KRANN3 RNAV arrival has been removed and replaced by the ROBUC1 RNAV arrivalIn addition, the OOSHN and QUABN STARs have been updated with major changes to the crossing restrictions. They are now the QUABN3 and the OOSHN3. Lastly, the SCUPP4 arrival has been removed.

Real-World Letter to Airmen

KPVD:

Arrival updated to WIPOR3. Additionally, some small changes to the airport diagram.

KSYR:

Airport Diagram update, terminal construction.

KBTV:

Burlington Clearance/Delivery created, frequency added to charts.

KBED/KBVY/KLWM:

ZELKA1 RNAV arrival created.

_________________________________________________________


1 week ago

ZBW Website NOTAM

Attention ZBW Controllers (and TS3 visitors):


Please update your settings to reflect the host as "bostonartcc.net" instead of "ts3.bostonartcc.net". Due to what appears to be local DNS caching issues, the old ts3 subdomain will no longer respond.


Please note that all email addresses are the same post-migration, however you may also elect to contact staff members through the roster.


Student Controllers

Please use the training center to request training sessions. This will provide a direct link for staff members to more easily monitor and manage training sessions.

1 month ago

ATC Online

Controller Position Frequency Sign-On
No controllers currently online.

Air Traffic

Inbound: 2 Outbound: 3 View All

ACA2312 CYYZ BULGE V252 WELTI ... J16 ALB GDM4 Lamar Paul CYYZ
B738/Q KBOS FL330 ETE: 1 hours
JBU598 KSEA ZADON ZELAK ZIRAN ... PONCT TRUIZ QUABN3 Joshua Black
A320/L KBOS 33000 ETE: 4 hours
AWE858 KALB DCT HNK J49 ... DCT HVQ JOHNS3 Brendan Welch KPBG
A319/X KCLT 38000 ETE: 2 hours
DAL609 KBOS SOSYO V431 GDM ... ROC V510 EHMAN Mark Rudzinski EGPH
H/B77L KBUF 40000 ETE: 1 hours
DVA925 KBOS SOSYO V431 GDM ... ROC V510 EHMAN Alan Shaikh EGPH
H/B772 KBUF 30000 ETE: under 1 hour

Weather parsed

KBOS 252054Z 24009KT 10SM FEW070 SCT130 OVC200 14/M02 A2990 RMK AO2 SLP126 T01391022 53013

KMHT 252053Z 26007KT 10SM BKN250 13/M04 A2988 RMK AO2 SLP132 T01331039 53016

KBDL 252051Z 24006KT 10SM FEW150 FEW180 BKN230 12/M04 A2994 RMK AO2 SLP139 VIRGA ALQDS T01221039 53012

KPVD 252051Z 22005KT 10SM FEW060 SCT180 OVC210 13/M01 A2993 RMK AO2 SLP136 T01331011 51006